Location: Unspecified
(45.3712°N, 0.6436°E)
Time: 03:36:22
(UTC+01:00)

ISS - Visible Passes

Search period start: 21 November 2018 00:00
Search period end: 01 December 2018 00:00
Orbit: 401 x 409 km, 51.6° (Epoch: 21 November)

Date Brightness Start Highest point End Pass type
(mag) Time Alt. Az. Time Alt. Az. Time Alt. Az.
23 Nov -1.6 19:22:42 10° SSW 19:23:53 17° S 19:23:53 17° S visible
24 Nov -1.8 18:31:38 10° S 18:33:31 15° SE 18:34:10 14° ESE visible
24 Nov -0.7 20:06:20 10° WSW 20:06:51 14° WSW 20:06:51 14° WSW visible
25 Nov -3.3 19:14:18 10° SW 19:17:02 49° S 19:17:02 49° S visible
26 Nov -2.7 18:22:31 10° SSW 18:25:27 31° SE 18:27:09 19° E visible
26 Nov -1.1 19:58:40 10° W 19:59:49 20° W 19:59:49 20° W visible
27 Nov -3.9 19:06:22 10° WSW 19:09:37 73° NNW 19:09:51 68° NNE visible
28 Nov -3.8 18:14:13 10° SW 18:17:27 67° SSE 18:19:50 17° ENE visible
28 Nov -1.3 19:51:08 10° W 19:52:29 20° WNW 19:52:29 20° WNW visible
29 Nov -3.1 18:58:41 10° W 19:01:49 42° NNW 19:02:24 37° NNE visible
30 Nov -3.6 18:06:19 10° WSW 18:09:32 62° NNW 18:12:17 14° NE visible
30 Nov -1.4 19:43:36 10° WNW 19:44:56 19° NW 19:44:56 19° NW visible
